TimeCDT,TemperatureF,Dew PointF,Humidity,Sea Level PressureIn,VisibilityMPH,Wind Direction,Wind SpeedMPH,Gust SpeedMPH,PrecipitationIn,Events,Conditions,WindDirDegrees,DateUTC
12:53 AM,75.0,68.0,79,29.94,10.0,NNE,9.2,-,N/A,,Clear,20,2013-08-14 05:53:00
1:53 AM,73.9,68.0,82,29.94,10.0,NNE,6.9,-,N/A,,Mostly Cloudy,30,2013-08-14 06:53:00
2:53 AM,72.0,68.0,87,29.94,9.0,NNE,5.8,-,N/A,,Scattered Clouds,20,2013-08-14 07:53:00
3:53 AM,71.1,66.9,87,29.95,8.0,Calm,Calm,-,N/A,,Partly Cloudy,0,2013-08-14 08:53:00
4:53 AM,71.1,66.0,84,29.96,10.0,NE,10.4,-,N/A,,Clear,40,2013-08-14 09:53:00
5:53 AM,70.0,66.0,87,29.98,10.0,NNE,9.2,-,N/A,,Mostly Cloudy,20,2013-08-14 10:53:00
6:53 AM,70.0,66.0,87,29.99,9.0,NNE,9.2,-,N/A,,Mostly Cloudy,30,2013-08-14 11:53:00
7:21 AM,69.8,66.2,88,30.01,9.0,NNE,9.2,-,N/A,,Mostly Cloudy,30,2013-08-14 12:21:00
7:53 AM,70.0,64.9,84,30.00,10.0,NE,13.8,-,N/A,,Mostly Cloudy,40,2013-08-14 12:53:00
8:09 AM,69.8,64.4,83,30.02,10.0,NNE,10.4,-,N/A,,Mostly Cloudy,30,2013-08-14 13:09:00
8:53 AM,73.0,66.0,79,30.01,10.0,NNE,9.2,-,N/A,,Mostly Cloudy,20,2013-08-14 13:53:00
9:53 AM,72.0,64.9,78,30.02,10.0,NNE,8.1,-,N/A,,Mostly Cloudy,20,2013-08-14 14:53:00
10:53 AM,73.0,66.0,79,30.02,10.0,North,8.1,-,N/A,,Mostly Cloudy,10,2013-08-14 15:53:00
11:53 AM,75.9,66.0,71,30.01,10.0,NNE,10.4,-,N/A,,Mostly Cloudy,30,2013-08-14 16:53:00
12:53 PM,80.1,66.0,62,30.00,10.0,North,11.5,-,N/A,,Scattered Clouds,10,2013-08-14 17:53:00
1:53 PM,81.0,64.9,58,29.98,10.0,North,9.2,-,N/A,,Scattered Clouds,10,2013-08-14 18:53:00
2:53 PM,82.0,63.0,52,29.97,10.0,North,12.7,-,N/A,,Scattered Clouds,10,2013-08-14 19:53:00
3:53 PM,80.1,64.0,58,29.97,10.0,North,10.4,-,N/A,,Scattered Clouds,360,2013-08-14 20:53:00
4:53 PM,80.1,63.0,56,29.98,10.0,North,11.5,-,N/A,,Partly Cloudy,10,2013-08-14 21:53:00
5:53 PM,78.1,61.0,56,29.98,10.0,North,9.2,-,N/A,,Partly Cloudy,360,2013-08-14 22:53:00
6:53 PM,73.9,60.1,62,29.99,10.0,North,8.1,-,N/A,,Partly Cloudy,10,2013-08-14 23:53:00
7:53 PM,70.0,59.0,68,30.00,10.0,North,6.9,-,N/A,,Partly Cloudy,10,2013-08-15 00:53:00
8:53 PM,69.1,60.1,73,30.02,10.0,North,5.8,-,N/A,,Scattered Clouds,10,2013-08-15 01:53:00
9:53 PM,71.1,57.9,63,30.04,10.0,NNE,8.1,-,N/A,,Mostly Cloudy,30,2013-08-15 02:53:00
10:53 PM,69.1,57.0,65,30.03,10.0,NE,9.2,-,N/A,,Partly Cloudy,40,2013-08-15 03:53:00
11:53 PM,66.9,57.0,70,30.04,10.0,NE,8.1,-,N/A,,Partly Cloudy,40,2013-08-15 04:53:00